Location: Jarosław
(50.0191°N, 22.6835°E)
Time: 10:17:22
(UTC+02:00)

ISS - Pass Details

Date: 23 March 2019
Orbit: 408 x 410 km, 51.6° (Epoch: 25 April)

Event Time Altitude Azimuth Distance (km) Brightness Sun altitude
Rises 18:42:35 0° 214° (SW) 2,326 0.3 -9.8°
Reaches altitude 10° 18:44:54 10° 200° (SSW) 1,468 -0.9 -10.1°
Maximum altitude 18:47:37 24° 144° (SE) 894 -2.5 -10.5°
Enters shadow 18:49:09 17° 104° (ESE) 1,112 -2.3 -10.8°
